User: anonymous   Login
Location: Kitchener
(43.4500°N, 80.5000°W)
Time: 05:30:32
(UTC-05:00)
Language:

Cosmos 1939 Rocket - Orbit

View from above orbital plane
View from above orbital plane
View from above satellite
View from above satellite

Ground track
Ground track

The orbit data is extracted from the following two-line orbital elements,

1 19046U 88032B   16342.22020645  .00001128  00000-0  89093-4 0  9993
2 19046  97.5585  28.3756 0039881 261.9812  97.6886 15.02095757543827
Epoch (UTC): 07 December 2016 05:17:05
Eccentricity: 0.0039881
inclination: 97.5585°
perigee height: 533 km
apogee height: 588 km
right ascension of ascending node: 28.3756°
argument of perigee: 261.9812°
revolutions per day: 15.02095757
mean anomaly at epoch: 97.6886°
orbit number at epoch: 54382

The dashed part of the orbit path shows where the satellite is in the earth's shadow,  

DLR